Probability
100 100 100 100 97 97 97 100 87 97 97 81 71 61 35 32 13 10 19 16 6 3 23 10 19 29 16 48 48 55 68 84 94 87 87 81 81 77 90 87 84 84 84
97 100 100 90 87 84 90 94 100 90 90 90 84 74 58 23 16 10 26 13 6 6 3 13 13 13 32 48 58 65 61 42 58 77 65 52 55 81 81 94 94 90 94
97 100 84 71 68 71 87 77 94 90 90 87 74 68 74 58 26 13 19 10 6 10 10 10 13 16 13 10 32 45 55 42 48 55 61 35 13 16 45 74 94 97 94
97 90 68 61 58 71 74 87 90 94 97 90 81 61 61 16 13 23 10 10 13 3 3 3 6 13 10 13 16 19 26 45 39 52 71 68 68 48 10 39 77 97 97
71 65 52 68 68 65 71 81 87 94 97 97 97 94 65 29 13 16 16 32 6 3 0 0 3 3 0 6 16 23 26 23 29 35 42 61 90 94 94 13 39 55 77
48 55 52 52 55 65 65 61 87 97 94 94 87 94 71 68 42 39 23 16 6 0 0 0 0 0 0 3 10 13 23 23 32 35 48 52 65 74 87 81 77 48 39
16 23 16 16 16 19 32 48 68 87 84 81 81 84 84 81 77 42 26 23 6 0 0 0 3 3 3 3 6 16 26 29 32 39 45 52 58 74 74 77 65 61 58
0 0 0 0 6 3 10 19 35 48 55 61 71 81 90 77 39 35 29 23 6 0 0 0 3 6 6 3 3 10 10 19 32 32 52 45 58 68 81 74 81 71 61
0 0 0 0 0 0 0 3 13 13 23 26 52 55 68 77 74 81 77 26 39 10 3 3 6 0 3 3 6 10 13 23 26 35 45 61 68 71 87 94 94 90 65
0 0 0 0 0 0 0 0 0 6 6 6 13 6 19 39 61 68 65 71 61 32 23 6 6 3 3 3 10 16 6 16 35 45 52 55 58 77 84 87 87 90 84
0 0 0 0 0 0 0 0 0 0 0 0 6 6 6 16 19 32 45 61 74 55 32 13 6 3 0 0 3 0 0 0 19 26 26 39 52 61 71 68 68 65 68
0 0 0 0 0 0 0 0 0 0 0 0 0 0 0 6 10 13 23 29 55 48 26 16 10 6 0 0 0 0 0 0 0 6 10 16 13 35 42 48 42 45 45
0 0 0 0 0 0 0 0 0 0 0 0 0 0 0 0 0 6 10 19 32 23 19 19 13 6 0 0 0 0 0 0 0 3 6 6 13 19 19 26 23 23 6
0 0 0 0 0 0 0 0 0 0 0 0 0 0 0 0 0 0 0 10 16 16 6 6 10 3 0 0 0 0 0 0 0 3 3 6 6 10 19 10 10 3 3
0 0 0 0 0 0 0 0 0 0 0 0 0 0 0 0 0 0 0 0 10 3 6 3 6 0 0 0 0 0 0 0 0 0 0 0 0 0 0 0 3 0 0
0 0 0 0 0 0 0 0 0 0 0 0 0 0 0 0 0 0 0 0 0 3 0 0 0 0 0 0 0 0 0 0 0 0 0 0 0 0 0 0 0 0 0
0 0 0 0 0 0 0 0 0 0 0 0 0 0 0 0 0 0 0 0 0 0 3 0 0 0 0 0 0 0 0 0 0 0 0 0 0 0 0 0 0 0 0
0 0 0 0 0 0 0 0 0 0 0 0 0 0 0 0 0 0 0 0 0 0 0 0 0 0 0 0 0 0 0 0 0 0 0 0 0 0 0 0 0 0 0
0 0 0 0 0 0 0 0 0 0 0 0 0 0 0 0 0 0 0 0 0 0 0 0 0 0 0 0 0 0 0 0 0 0 0 0 0 0 0 0 0 0 0
0 0 0 0 0 0 0 0 0 0 0 0 0 0 0 0 0 0 0 0 0 0 0 0 0 0 0 0 0 0 0 0 0 0 0 0 0 0 0 0 0 0 0
0 0 0 0 0 0 0 0 0 0 0 0 0 0 0 0 0 0 0 0 0 0 0 0 0 0 0 0 0 0 0 0 0 0 0 0 0 0 0 0 0 0 0
0 0 0 0 0 0 0 0 0 0 0 0 0 0 0 0 0 0 0 0 0 0 0 0 0 0 0 0 0 0 0 0 0 0 0 0 0 0 0 0 0 0 0
0 0 0 0 0 0 0 0 0 0 0 0 0 0 0 0 0 0 0 0 0 0 0 0 0 0 0 0 0 0 0 0 0 0 0 0 0 0 0 0 0 0 0
0 0 0 0 0 0 0 0 0 0 0 0 0 0 0 0 0 0 0 0 0 0 0 0 0 0 0 0 0 0 0 0 0 0 0 0 0 0 0 0 0 0 0
0 0 0 0 0 0 0 0 0 0 0 0 0 0 0 0 0 0 0 0 0 0 0 0 0 0 0 0 0 0 0 0 0 0 0 0 0 0 0 0 0 0 0
0 0 0 0 0 0 0 0 0 0 0 0 0 0 0 0 0 0 0 0 0 0 0 0 0 0 0 0 0 0 0 0 0 0 0 0 0 0 0 0 0 0 0
Height
5883 5881 5879 5877 5874 5872 5869 5866 5863 5861 5858 5856 5854 5852 5850 5848 5846 5844 5843 5841 5839 5837 5835 5832 5829 5827 5824 5821 5818 5816 5814 5812 5810 5809 5809 5809 5809 5809 5810 5810 5811 5812 5813
5876 5874 5872 5869 5866 5864 5861 5858 5855 5853 5851 5849 5847 5845 5843 5842 5840 5838 5837 5835 5833 5831 5828 5825 5822 5819 5816 5813 5810 5807 5804 5803 5801 5800 5799 5800 5801 5800 5801 5801 5801 5803 5804
5868 5866 5863 5860 5857 5854 5853 5850 5847 5845 5843 5842 5840 5838 5837 5836 5834 5832 5830 5829 5826 5824 5822 5819 5815 5811 5808 5804 5801 5797 5795 5793 5792 5790 5789 5790 5791 5791 5792 5792 5793 5794 5795
5859 5857 5854 5851 5848 5846 5844 5842 5840 5838 5836 5835 5833 5831 5830 5829 5828 5826 5824 5822 5819 5817 5814 5811 5808 5804 5800 5796 5792 5788 5785 5783 5782 5780 5779 5780 5781 5781 5783 5784 5785 5785 5786
5851 5848 5845 5842 5840 5839 5836 5835 5833 5831 5829 5827 5826 5825 5824 5822 5821 5819 5817 5815 5812 5810 5807 5804 5800 5797 5793 5788 5784 5779 5776 5773 5771 5769 5769 5769 5770 5771 5772 5774 5776 5777 5778
5843 5841 5839 5837 5834 5832 5829 5827 5825 5824 5822 5821 5819 5818 5816 5815 5814 5812 5810 5808 5805 5802 5800 5796 5793 5789 5785 5780 5775 5771 5767 5763 5760 5759 5758 5758 5759 5761 5762 5764 5766 5767 5769
5837 5835 5833 5830 5828 5825 5822 5820 5818 5816 5815 5813 5812 5810 5809 5807 5805 5803 5802 5799 5797 5794 5792 5788 5785 5781 5777 5772 5767 5763 5759 5755 5751 5749 5747 5747 5749 5750 5752 5754 5757 5758 5759
5831 5829 5826 5823 5821 5818 5815 5813 5810 5808 5806 5805 5803 5802 5800 5798 5796 5794 5792 5790 5788 5786 5783 5780 5777 5773 5769 5765 5760 5755 5751 5746 5743 5740 5738 5737 5738 5740 5741 5744 5746 5748 5750
5824 5821 5818 5816 5813 5810 5807 5804 5801 5799 5797 5795 5793 5792 5790 5788 5786 5784 5782 5780 5778 5776 5774 5771 5768 5765 5761 5757 5752 5748 5743 5738 5734 5731 5729 5728 5728 5729 5731 5734 5736 5738 5740
5815 5812 5809 5806 5802 5799 5796 5793 5791 5788 5785 5783 5781 5780 5778 5776 5774 5773 5771 5769 5768 5766 5764 5761 5759 5756 5753 5749 5745 5740 5736 5731 5727 5723 5721 5719 5719 5720 5722 5724 5726 5728 5730
5805 5801 5798 5794 5791 5787 5784 5781 5778 5775 5772 5770 5767 5766 5764 5763 5761 5760 5758 5757 5756 5755 5753 5751 5749 5746 5744 5740 5737 5733 5728 5724 5720 5716 5713 5711 5711 5711 5712 5714 5716 5718 5720
5794 5790 5786 5781 5777 5774 5770 5766 5763 5760 5757 5754 5751 5749 5748 5747 5746 5745 5745 5744 5743 5743 5742 5740 5739 5737 5734 5732 5729 5725 5721 5717 5713 5709 5706 5704 5703 5703 5704 5706 5707 5709 5711
5781 5777 5772 5768 5763 5758 5754 5750 5746 5743 5739 5736 5734 5732 5730 5730 5729 5729 5729 5730 5730 5730 5730 5729 5728 5726 5725 5723 5720 5717 5714 5710 5706 5703 5700 5698 5696 5695 5696 5697 5699 5701 5702
5766 5761 5756 5751 5746 5741 5737 5733 5728 5724 5721 5717 5715 5713 5711 5710 5710 5711 5712 5713 5714 5716 5716 5717 5716 5716 5715 5714 5712 5709 5707 5703 5700 5696 5694 5692 5690 5689 5689 5690 5692 5693 5695
5750 5744 5738 5733 5728 5722 5717 5712 5708 5704 5700 5697 5694 5692 5690 5690 5690 5691 5693 5695 5697 5699 5701 5703 5704 5704 5704 5704 5703 5701 5699 5696 5693 5690 5687 5685 5684 5683 5684 5684 5685 5687 5688
5732 5725 5718 5712 5706 5700 5694 5689 5684 5680 5676 5673 5670 5668 5667 5667 5668 5669 5672 5675 5678 5681 5685 5688 5690 5691 5693 5693 5693 5692 5691 5689 5686 5684 5681 5679 5678 5677 5678 5679 5680 5682 5683
5712 5703 5695 5687 5679 5672 5666 5661 5656 5651 5648 5645 5642 5640 5639 5641 5642 5644 5648 5652 5657 5662 5667 5671 5675 5678 5680 5681 5682 5683 5682 5681 5679 5677 5675 5674 5673 5672 5673 5674 5675 5676 5678
5688 5678 5668 5659 5651 5644 5637 5631 5626 5622 5618 5615 5613 5611 5611 5612 5614 5617 5622 5628 5634 5640 5647 5652 5658 5662 5666 5669 5671 5673 5673 5673 5672 5671 5670 5669 5668 5668 5668 5670 5671 5672 5674
5663 5652 5643 5635 5628 5622 5616 5611 5607 5602 5598 5594 5591 5589 5587 5587 5588 5591 5595 5601 5609 5617 5625 5633 5640 5646 5651 5655 5659 5662 5663 5664 5664 5664 5664 5664 5663 5664 5664 5666 5667 5669 5670
5641 5633 5626 5620 5614 5609 5604 5599 5594 5590 5585 5581 5578 5575 5572 5571 5570 5571 5574 5579 5585 5594 5603 5613 5621 5629 5635 5641 5646 5650 5653 5655 5656 5657 5657 5658 5659 5660 5661 5662 5663 5665 5667
5626 5619 5614 5608 5603 5598 5592 5588 5583 5579 5575 5571 5568 5565 5563 5561 5559 5559 5560 5563 5568 5575 5583 5594 5604 5613 5621 5627 5633 5639 5643 5646 5648 5650 5651 5652 5654 5655 5657 5659 5661 5663 5665
5615 5608 5603 5598 5592 5586 5580 5575 5570 5566 5562 5559 5557 5555 5553 5552 5551 5551 5551 5553 5556 5562 5569 5578 5588 5598 5606 5614 5621 5628 5634 5638 5640 5643 5645 5647 5649 5651 5654 5656 5658 5661 5664
5604 5597 5591 5585 5579 5572 5566 5560 5556 5551 5547 5545 5543 5542 5541 5541 5541 5541 5543 5544 5546 5550 5557 5565 5574 5584 5593 5602 5610 5617 5624 5630 5633 5637 5640 5642 5645 5648 5651 5653 5656 5660 5663
5593 5586 5579 5571 5565 5558 5550 5544 5539 5534 5531 5528 5527 5527 5528 5529 5530 5531 5532 5535 5537 5541 5547 5553 5561 5571 5582 5592 5601 5609 5616 5622 5627 5631 5634 5638 5642 5645 5648 5652 5655 5659 5662
5582 5573 5565 5557 5549 5541 5534 5527 5521 5516 5513 5511 5510 5511 5513 5515 5518 5520 5522 5525 5528 5531 5536 5543 5551 5560 5572 5584 5594 5602 5610 5616 5622 5626 5630 5634 5639 5643 5647 5650 5654 5658 5661
5569 5560 5550 5541 5532 5523 5516 5509 5502 5498 5495 5494 5494 5495 5498 5501 5505 5508 5511 5514 5518 5521 5526 5534 5542 5552 5564 5576 5586 5595 5603 5610 5617 5622 5627 5632 5636 5641 5645 5649 5653 5657 5660
Wind_Speed
34 35 35 35 36 37 38 38 37 35 33 30 27 26 24 22 20 18 18 18 19 20 22 24 27 29 32 34 36 38 40 41 42 42 41 40 39 38 36 35 35 34 33
33 34 34 36 37 38 38 38 36 35 32 28 27 25 22 19 17 17 16 16 17 18 19 22 25 27 30 32 35 38 39 40 42 43 42 40 38 37 35 36 35 35 34
32 34 35 37 38 38 38 37 35 33 30 28 26 24 21 19 18 18 19 19 19 20 21 23 25 27 29 31 33 36 38 40 41 43 43 40 38 37 36 35 35 34 34
32 34 36 38 38 37 36 36 34 33 30 28 26 24 22 22 22 22 23 23 23 23 23 24 26 28 29 31 32 34 36 38 40 42 43 42 40 39 37 35 34 35 35
31 32 34 34 34 35 34 34 34 33 31 28 26 26 25 26 26 26 27 27 26 26 26 26 27 28 30 31 32 33 35 36 38 40 42 43 42 41 39 37 36 36 36
26 28 30 31 33 34 35 36 35 34 32 29 29 29 30 30 30 30 29 29 28 28 27 27 28 29 30 32 33 33 34 35 36 38 40 41 42 41 41 39 38 38 37
25 28 30 32 34 35 36 36 36 36 35 34 34 34 35 34 34 33 32 31 30 29 28 27 28 30 31 33 33 33 34 34 34 35 37 39 40 41 41 40 39 39 38
27 29 31 33 35 37 38 39 39 39 39 39 39 39 38 37 36 34 33 32 31 29 28 27 28 29 31 33 33 34 34 34 33 33 34 35 37 39 40 39 39 39 39
30 32 34 35 37 38 40 41 42 43 43 43 42 41 40 38 37 35 34 33 32 31 29 28 28 29 31 32 34 34 34 34 32 32 32 33 34 36 38 38 38 38 38
36 37 38 40 41 42 44 45 46 47 47 46 45 44 43 41 40 39 37 36 34 33 31 30 29 30 31 32 33 34 34 33 32 31 30 30 31 33 35 37 37 37 38
41 42 44 45 46 47 49 49 50 51 51 51 50 49 48 46 45 43 41 39 37 35 33 32 31 31 31 32 33 34 34 33 31 29 28 28 28 30 32 35 36 37 38
44 46 47 48 49 51 52 53 54 55 56 56 56 55 53 52 50 49 46 44 41 39 36 34 33 32 31 32 33 34 34 33 31 29 27 26 26 28 30 32 34 35 36
45 47 48 50 52 53 55 56 57 59 61 62 62 61 59 58 57 54 51 49 46 43 39 36 34 33 32 32 33 34 34 33 31 28 26 24 24 24 26 28 30 31 32
49 51 52 53 55 57 59 60 62 63 65 66 66 66 65 65 64 62 58 54 51 47 44 40 38 36 34 34 33 34 34 33 31 28 25 23 22 22 23 24 26 28 29
53 55 57 59 61 63 65 66 68 69 70 71 72 72 71 70 69 68 64 60 57 52 48 44 42 40 37 36 35 34 34 33 31 28 25 23 22 21 22 22 23 25 26
60 63 65 67 69 71 73 74 76 77 78 78 79 78 79 77 77 75 70 65 62 58 54 49 45 43 40 38 36 35 34 33 30 27 25 23 22 22 21 22 24 26 26
70 72 75 77 78 79 80 81 81 82 83 84 84 84 83 82 81 79 75 71 66 63 59 53 50 46 43 40 38 36 34 32 30 26 23 22 22 22 22 23 24 26 27
77 79 78 77 74 71 68 67 67 68 69 70 72 74 76 78 78 78 76 73 69 66 61 56 52 50 47 43 40 37 35 32 29 26 22 21 21 21 22 23 24 24 24
77 73 66 60 54 50 47 46 45 45 46 48 49 52 55 58 60 63 66 67 66 64 60 56 52 49 46 44 41 38 35 32 29 25 22 20 19 19 22 23 23 22 22
61 54 48 43 41 39 39 38 37 36 36 35 35 35 35 37 40 43 47 50 53 54 53 51 48 46 43 42 40 37 34 31 28 24 21 19 19 18 19 20 21 20 19
47 43 41 40 40 40 41 41 40 39 38 36 34 31 30 28 28 29 32 36 39 42 45 47 45 44 42 41 40 36 33 31 28 24 22 20 18 18 18 18 17 17 16
42 41 40 40 41 42 43 43 42 42 41 39 37 34 31 29 27 25 25 28 32 35 37 43 45 44 42 41 39 36 33 30 26 24 21 20 19 18 18 17 17 16 15
41 42 43 43 44 45 46 45 44 44 43 42 40 37 34 30 29 27 27 27 29 33 36 40 44 44 41 39 38 36 32 29 26 23 21 20 19 18 18 17 17 16 16
43 45 45 46 47 48 48 48 48 47 45 43 41 38 35 32 30 29 27 27 27 32 36 39 42 42 43 40 38 34 30 28 26 24 23 22 21 20 19 18 17 17 16
46 47 49 50 50 51 51 50 49 48 44 42 40 37 35 33 31 29 28 27 27 30 36 41 41 41 42 40 37 34 30 28 26 25 23 23 22 21 19 18 17 17 16
48 50 52 53 53 52 50 49 48 45 41 38 36 34 32 31 31 30 29 29 28 28 31 37 41 42 41 40 38 35 32 30 27 25 24 23 22 21 20 19 17 16 16
Wind_Direction
269 271 274 276 279 282 285 288 290 291 292 292 293 294 293 293 293 294 296 299 301 303 304 304 302 299 296 292 287 284 281 279 277 276 275 275 274 273 272 270 268 267 265
268 270 272 275 277 280 283 285 286 288 289 289 291 292 292 291 292 295 299 303 306 310 312 312 310 307 303 297 291 286 281 278 277 276 274 273 272 272 270 267 266 265 263
269 270 271 273 274 277 280 283 284 286 287 289 290 290 289 289 291 294 298 300 303 307 310 314 316 314 311 305 298 291 285 280 276 275 273 272 270 269 267 266 264 263 261
267 268 269 272 273 276 278 280 282 285 286 288 288 287 287 286 288 289 292 295 297 302 307 312 317 318 316 311 305 297 291 284 278 274 272 270 268 266 264 263 262 262 262
268 268 270 272 275 277 278 281 284 286 286 286 284 284 284 284 285 286 288 289 292 296 301 307 312 315 317 315 311 303 296 289 282 276 271 268 266 265 263 261 260 260 261
274 273 275 276 277 279 281 283 285 286 285 284 283 283 283 283 283 284 285 287 289 293 297 303 308 312 316 318 315 309 302 294 287 280 273 269 266 264 262 260 259 259 260
276 275 276 277 278 280 281 282 283 284 283 282 282 282 283 282 282 283 283 285 288 291 295 301 305 310 314 318 317 312 307 300 292 284 277 270 266 263 261 260 258 258 259
277 277 276 276 277 278 278 278 278 279 280 280 281 281 282 282 282 282 284 285 287 289 291 297 302 307 312 316 317 314 310 305 297 288 280 273 267 263 260 259 258 257 259
280 279 277 276 276 276 275 275 275 276 277 277 278 279 279 280 280 282 284 285 286 287 289 293 298 304 309 314 316 315 312 309 302 293 284 276 268 263 260 258 257 257 259
280 280 279 278 277 276 275 274 274 274 275 276 277 278 278 280 281 282 283 284 285 286 288 291 294 300 305 311 314 315 314 310 305 298 289 279 270 263 259 257 256 256 257
279 279 278 277 277 276 275 275 274 274 274 275 276 277 278 280 281 282 282 283 283 284 285 288 291 295 301 306 311 313 314 311 307 301 293 283 272 264 258 256 254 255 255
280 280 279 279 278 277 276 276 275 274 274 274 275 276 277 279 280 280 280 280 280 281 282 284 287 291 296 301 306 310 312 311 308 303 296 286 275 264 258 255 252 253 253
284 283 282 280 279 278 277 276 275 275 275 274 274 275 275 276 277 277 278 278 278 278 279 281 284 287 291 295 300 305 308 310 307 304 297 288 278 266 258 252 250 250 249
289 288 286 284 283 281 280 279 277 276 275 274 274 274 274 275 275 274 274 274 274 274 275 276 280 283 286 290 295 299 303 306 305 303 296 289 280 268 258 251 247 247 247
293 291 289 287 285 283 281 279 277 275 274 273 272 272 272 272 272 271 270 269 269 270 272 274 276 278 280 284 289 293 297 301 301 300 296 289 279 268 259 254 248 246 244
295 293 291 289 286 284 281 279 277 275 273 272 271 271 270 269 270 270 269 268 267 268 269 271 272 273 275 278 282 286 290 294 295 295 292 287 279 266 257 252 248 243 241
297 295 293 291 288 286 284 282 279 277 275 274 272 272 271 270 269 268 268 266 265 266 266 266 267 268 269 272 274 278 281 285 288 289 286 280 275 263 253 248 245 239 235
300 298 297 296 294 293 291 289 286 284 281 278 276 274 273 270 268 266 265 263 261 261 260 261 261 262 264 265 266 269 272 276 278 280 278 273 268 260 253 244 240 235 233
303 302 302 301 301 300 299 298 297 295 292 288 283 280 277 273 269 265 263 261 258 257 255 255 255 256 256 256 257 259 262 265 267 269 268 264 260 257 251 240 237 235 231
306 306 305 305 305 304 304 303 303 302 301 299 295 291 287 280 273 267 261 256 252 249 246 243 242 243 245 246 247 249 252 255 257 258 256 253 249 247 242 237 233 229 221
310 309 307 307 306 304 303 301 300 298 296 295 295 293 290 285 279 270 260 251 245 240 234 229 228 230 232 235 237 240 243 245 247 247 244 241 238 236 234 232 226 216 207
312 310 309 308 306 305 303 301 299 296 293 291 290 288 286 281 278 271 264 255 245 234 226 219 216 218 220 227 230 232 234 236 236 235 232 228 225 224 221 216 209 200 193
314 312 311 309 307 305 303 300 298 294 290 288 286 284 280 276 273 269 263 257 247 235 224 217 213 213 213 219 223 223 224 227 225 223 219 216 213 210 206 202 196 192 187
314 313 311 310 308 306 303 300 297 293 289 285 282 277 273 270 267 265 260 253 248 237 225 216 214 210 206 209 213 213 215 216 216 213 209 208 206 202 198 194 190 187 185
316 314 313 311 308 305 303 300 297 293 288 284 279 273 268 263 259 257 255 250 245 241 230 220 215 207 200 198 202 204 206 207 206 205 203 201 197 192 189 188 186 187 189
319 316 314 312 310 307 304 301 297 292 286 282 276 270 264 257 253 250 249 246 243 237 227 219 214 201 192 189 192 194 197 198 198 196 194 191 188 187 187 188 189 191 194